User: anonymous   Login
Location: Unspecified
(0.0000°N, 0.0000°E)
Time: 05:24:11
(UTC+00:00)
Language:

NNS O-32 - Orbit

View from above orbital plane
View from above orbital plane
View from above satellite
View from above satellite

Ground track
Ground track

The orbit data is extracted from the following two-line orbital elements,

1 19071U 88033B   17324.89918310  .00000067  00000-0  11547-3 0  9990
2 19071  90.3657 279.0488 0190463  74.2135 339.1595 13.27599181432441
Epoch (UTC): 20 November 2017 21:34:49
Eccentricity: 0.0190463
inclination: 90.3657°
perigee height: 1012 km
apogee height: 1299 km
right ascension of ascending node: 279.0488°
argument of perigee: 74.2135°
revolutions per day: 13.27599181
mean anomaly at epoch: 339.1595°
orbit number at epoch: 43244

The dashed part of the orbit path shows where the satellite is in the earth's shadow,  

DLR